This is the latest recevied weather packets stored in our database for station/object KC8BSD. If no packets are shown the sender has not sent any weather packets the latest 10 day(s).
| Time | Temp. | Humidity | Pressure | Rain* | Wind** | Luminosity | Snow |
|---|---|---|---|---|---|---|---|
| 1777566059 | 11.11° C | 56% | 1016.1 hPa | 0 mm | - | 665 W/m² | - |
| 1777565754 | 11.67° C | 56% | 1016.3 hPa | 0 mm | - | 844 W/m² | - |
| 1777565451 | 11.67° C | 53% | 1016.2 hPa | 0 mm | - | 744 W/m² | - |
| 1777565147 | 11.67° C | 57% | 1016.1 hPa | 0 mm | - | 757 W/m² | - |
| 1777564844 | 11.11° C | 56% | 1016.2 hPa | 0 mm | - | 733 W/m² | - |
| 1777564538 | 10.56° C | 59% | 1016.1 hPa | 0 mm | - | 208 W/m² | - |
| 1777564234 | 11.11° C | 54% | 1016.2 hPa | 0 mm | - | 759 W/m² | - |
| 1777563930 | 10.56° C | 57% | 1016.1 hPa | 0 mm | - | 693 W/m² | - |
| 1777563627 | 10.56° C | 58% | 1015.9 hPa | 0 mm | - | 670 W/m² | - |
| 1777563327 | 11.11° C | 58% | 1016.2 hPa | 0 mm | - | 677 W/m² | - |
| 1777563023 | 10.56° C | 58% | 1016.2 hPa | 0 mm | - | 639 W/m² | - |
| 1777562718 | 11.11° C | 61% | 1016.3 hPa | 0 mm | - | 560 W/m² | - |
| 1777562412 | 10.56° C | 58% | 1016.1 hPa | 0 mm | - | 624 W/m² | - |
| 1777562109 | 9.44° C | 61% | 1016.2 hPa | 0 mm | - | 590 W/m² | - |
| 1777561807 | 10° C | 63% | 1016.1 hPa | 0 mm | - | 181 W/m² | - |
| 1777561503 | 10.56° C | 62% | 1016.2 hPa | 0 mm | - | 391 W/m² | - |
| 1777561197 | 10° C | 61% | 1016.4 hPa | 0 mm | - | 666 W/m² | - |
| 1777560892 | 10° C | 62% | 1016.1 hPa | 0 mm | - | 238 W/m² | - |
| 1777560590 | 8.89° C | 66% | 1016 hPa | 0 mm | - | 701 W/m² | - |
| 1777560288 | 8.89° C | 65% | 1015.9 hPa | 0 mm | - | 211 W/m² | - |
| 1777559984 | 9.44° C | 65% | 1016 hPa | 0 mm | - | 250 W/m² | - |
| 1777559679 | 8.33° C | 67% | 1016.1 hPa | 0 mm | - | 178 W/m² | - |
| 1777559377 | 9.44° C | 66% | 1016.2 hPa | 0 mm | - | 155 W/m² | - |
| 1777559073 | 11.11° C | 64% | 1015.9 hPa | 0 mm | - | 410 W/m² | - |
| 1777558768 | 10° C | 64% | 1015.8 hPa | 0 mm | - | 593 W/m² | - |
* Rain latest hour (hover to see other rain measurements)
** Current wind speed in m/s (hover to see current wind gust speed)